C/2006 CK10 ( Catalina )

Japanese version
Home page
Updated on February 12, 2007

---------------------------------------------------------------------

* Profile

Discovery Date February 4, 2006
Magnitude 19.0 mag
Discoverer Catalina Sky Survey

* Orbital Elements

The following orbital elements are taken from MPC 57794:

Epoch 2006 July 4.0 TT = JDT 2453920.5
T 2006 July 3.2777 TT                                   MPC
q   1.752177             (2000.0)            P               Q
z  +0.004601       Peri.  143.4555      -0.0791284      +0.8479683
 +/-0.000003       Node   243.8100      +0.7187990      +0.4128160
e   0.991938       Incl.  144.2626      +0.6907002      -0.3324646
From 263 observations 2006 Feb. 4-Oct. 3, mean residual 0".6.

* Finding Charts

* Magnitudes Graph

        m1 = 12.5 + 5 log d + 10.0 log r

---------------------------------------------------------------------

The orbital elements are published at the MPC Ephemerides and Orbital Elements.
The charts are made with StellaNavigator Ver.2.0 for Windows (AstroArts / ASCII).
The magnitudes graphs are made with Comet for Windows.

---------------------------------------------------------------------

Copyright(C) Seiichi Yoshida (comet@aerith.net). All rights reserved.